Other Public Products
Issued by NWS Charleston, SC

Home | Current Version | Previous Version | Text Only | Print | Product List | Glossary On
Versions: 1 2 3 4 5 6 7 8 9 10 11 12 13 14 15 16 17 18 19 20 21 22 23 24 25 26 27 28 29 30 31 32 33 34 35 36 37 38 39 40 41 42 43 44 45 46 47 48 49 50
000
FPUS82 KCHS 241727
OPUCHS

TEST...KCHS/KSAV Gateway Observations...TEST
National Weather Service Charleston SC
100 PM EDT TUE APR 24 2018

NOTE: "fair" indicates few or no clouds below 12,000 feet with no
significant weather and/or obstructions to visibility.

SCZ050-WAZ558-NCZ071-TXZ119-213-PAZ071-DCZ001-FLZ074-172-MI076-
NYZ176-178-MAZ016-IL014-TNZ027-NJZ106-GAZ044-MD014-241800-

...Gateway Observations for Charleston International...

CITY           SKY/WX    TMP DP  RH WIND       PRES   REMARKS
Chas Airport   FAIR      76  60  57 S10       29.84F
Seattle        MOSUNNY   67  36  31 N12       30.18F
Charlotte      CLOUDY    66  63  90 E12       29.86F
Dallas DFW     SUNNY     76  50  40 E6        30.10F
Dallas Love    SUNNY     78  50  37 E6        30.11F
Philladelphia  CLOUDY    63  43  48 SE13      30.30F
Wash National  CLOUDY    63  47  55 SE20G29   30.20F
Baltimore      CLOUDY    63  47  55 E22       30.22F
Miami          PTSUNNY   87  67  51 S6        29.98F HX  90
Detroit        LGT RAIN  54  50  86 SE8       30.07F FOG
Newark         PTSUNNY   63  38  39 SE15G24   30.35F
Laguardia      PTSUNNY   65  34  31 S17       30.35F
J F K          PTSUNNY   61  40  45 SE18      30.38F
Boston Logan   PTSUNNY   66  28  24 S13       30.33F
Ft. Lauderdale PTSUNNY   86  70  58 VRB7      29.96F HX  90
Chicago O`Hare PTSUNNY   61  47  59 NE9       30.03F
Chicago Midway PTSUNNY   60  48  64 N16       30.03F
Houston Bush   FAIR      79  56  45 N9        30.10S
Houston Hobby  PTSUNNY   79  55  43 VRB3      30.09S
Nashville      CLOUDY    64  55  72 W8        29.92F
Atlanta        PTSUNNY   65  60  84 W10G16    29.88F

$$

GAZ044-118-TXZ119-213-NCZ071-DCZ001-MDZ014-506-PAZ021-071-NJZ106-
NYZ176-178-MAZ106-OHZ011-021-055-MIZ076-KYZ091-ILZ014-INZ047-
MNZ060-ONZ431-241800-

...Gateway Observations for Savannah International...

CITY           SKY/WX    TMP DP  RH WIND       PRES   REMARKS
Savannah Arpt  PTSUNNY   76  56  49 W12       29.87F
Atlanta        PTSUNNY   65  60  84 W10G16    29.88F
Charlotte      CLOUDY    66  63  90 E12       29.86F
Dallas DFW     SUNNY     76  50  40 E6        30.10F
Houston Bush   FAIR      79  56  45 N9        30.10S
Wash National  CLOUDY    63  47  55 SE20G29   30.20F
Wash Dulles    CLOUDY    61  47  59 E15G24    30.19F
Baltimore      CLOUDY    63  47  55 E22       30.22F
Philadelphia   CLOUDY    63  43  48 SE13      30.30F
Newark         PTSUNNY   63  38  39 SE15G24   30.35F
Laguardia      PTSUNNY   65  34  31 S17       30.35F
J F K          PTSUNNY   61  40  45 SE18      30.38F
Boston         PTSUNNY   66  28  24 S13       30.33F
Pittsburg      LGT RAIN  51  49  92 E9        30.08F
Akron          LGT RAIN  52  47  83 E12       30.07F
Cleveland      CLOUDY    57  46  66 SE17      30.09F
Cincinnati     CLOUDY    55  53  93 E9        29.92F
Columbus       RAIN      51  51 100 E13       29.98F
Detroit        LGT RAIN  54  50  86 SE8       30.07F FOG
Chicago O`Hare PTSUNNY   61  47  59 NE9       30.03F
Minneapolis    PTSUNNY   64  33  31 N18G28    30.16R
Indianapolis   DRIZZLE   54  53  97 NE8       29.96F FOG
Toronto Canada CLOUDY    61  45  55 SE8       30.14F

$$




USA.gov is the U.S. government's official web portal to all federal, state and local government web resources and services.